When you browse on this site, cookies collect data to enhance your experience and personalize the content and advertising you see.
Visit our Privacy Policy to learn more. By continuing to use the site, you agree to this use of cookies and data.
  • In United Kingdom
  • List of Countries
  • For 7 days
  • Water Temperature
  • Satellite Maps
  • Weather Map
  • Weather Widgets
  • user-avatar
    Login

    Hourly Weather Monreale

    Today, 21 May, Tuesday

    Time Temperature Precipitation Wind Pressure Humidity
    00:00 +12°C° 0 mm 2 mps 733 mmHg 86%
    01:00 +12°C° 0 mm 2 mps 733 mmHg 86%
    02:00 +12°C° 0 mm 2 mps 733 mmHg 85%
    03:00 +12°C° 0 mm 2 mps 734 mmHg 84%
    04:00 +10°C° 0 mm 3 mps 734 mmHg 83%
    05:00 +13°C° 0 mm 2 mps 734 mmHg 77%
    06:00 +14°C° 0 mm 2 mps 734 mmHg 71%
    07:00 +16°C° 0 mm 2 mps 734 mmHg 66%
    08:00 +17°C° 0 mm 2 mps 735 mmHg 58%
    09:00 +19°C° 0 mm 2 mps 735 mmHg 50%
    10:00 +21°C° 0 mm 2 mps 735 mmHg 42%
    11:00 +21°C° 0 mm 2 mps 735 mmHg 41%
    12:00 +22°C° 0 mm 3 mps 736 mmHg 39%
    13:00 +22°C° 0 mm 3 mps 736 mmHg 38%
    14:00 +22°C° 0 mm 3 mps 736 mmHg 39%
    15:00 +22°C° 0 mm 3 mps 736 mmHg 40%
    16:00 +21°C° 0 mm 2 mps 736 mmHg 41%
    17:00 +20°C° 0 mm 2 mps 735 mmHg 48%
    18:00 +19°C° 0 mm 1 mps 735 mmHg 55%
    19:00 +18°C° 0 mm 1 mps 735 mmHg 62%
    20:00 +16°C° 0 mm 1 mps 735 mmHg 63%
    21:00 +15°C° 0 mm 2 mps 735 mmHg 64%
    22:00 +15°C° 0 mm 2 mps 735 mmHg 65%
    23:00 +15°C° 0 mm 2 mps 735 mmHg 60%

    Tomorrow, 22 May, Wednesday

    Time Temperature Precipitation Wind Pressure Humidity
    00:00 +15°C° 0 mm 2 mps 735 mmHg 56%
    01:00 +15°C° 0 mm 1 mps 735 mmHg 52%
    02:00 +15°C° 0 mm 1 mps 735 mmHg 48%
    03:00 +15°C° 0 mm 1 mps 735 mmHg 44%
    04:00 +15°C° 0 mm 1 mps 735 mmHg 41%
    05:00 +16°C° 0 mm 1 mps 735 mmHg 40%
    06:00 +18°C° 0 mm 1 mps 735 mmHg 40%
    07:00 +19°C° 0 mm 1 mps 735 mmHg 40%
    08:00 +21°C° 0 mm 1 mps 735 mmHg 38%
    09:00 +23°C° 0 mm 1 mps 736 mmHg 37%
    10:00 +24°C° 0 mm 1 mps 736 mmHg 36%
    11:00 +24°C° 0 mm 2 mps 736 mmHg 38%
    12:00 +24°C° 0 mm 3 mps 736 mmHg 41%
    13:00 +24°C° 0 mm 3 mps 736 mmHg 43%
    14:00 +22°C° 0 mm 3 mps 736 mmHg 48%
    15:00 +21°C° 0 mm 3 mps 735 mmHg 53%
    16:00 +20°C° 0 mm 3 mps 735 mmHg 58%
    17:00 +19°C° 0 mm 2 mps 735 mmHg 63%
    18:00 +18°C° 0 mm 2 mps 735 mmHg 68%
    19:00 +18°C° 0 mm 1 mps 735 mmHg 73%
    20:00 +16°C° 0.1 mm 1 mps 735 mmHg 75%
    21:00 +16°C° 0.1 mm 1 mps 735 mmHg 77%
    22:00 +15°C° 0.1 mm 1 mps 735 mmHg 79%
    23:00 +14°C° 0 mm 1 mps 735 mmHg 81%

    Day after tomorrow, 23 May, Thursday

    Time Temperature Precipitation Wind Pressure Humidity
    00:00 +13°C° 0 mm 0 mps 735 mmHg 83%
    01:00 +12°C° 0 mm 0 mps 735 mmHg 85%
    02:00 +12°C° 0 mm 0 mps 735 mmHg 85%
    03:00 +12°C° 0 mm 0 mps 734 mmHg 85%
    04:00 +11°C° 0 mm 0 mps 734 mmHg 86%
    05:00 +13°C° 0 mm 0 mps 734 mmHg 80%
    06:00 +14°C° 0 mm 0 mps 734 mmHg 74%
    07:00 +15°C° 0 mm 0 mps 735 mmHg 68%
    08:00 +19°C° 0 mm 1 mps 735 mmHg 59%
    09:00 +20°C° 0 mm 1 mps 735 mmHg 49%
    10:00 +22°C° 0 mm 1 mps 735 mmHg 40%
    11:00 +23°C° 0 mm 2 mps 735 mmHg 39%
    12:00 +23°C° 0 mm 2 mps 735 mmHg 38%
    13:00 +24°C° 0 mm 3 mps 735 mmHg 36%
    14:00 +24°C° 0 mm 3 mps 735 mmHg 39%
    15:00 +22°C° 0 mm 3 mps 735 mmHg 41%
    16:00 +21°C° 0 mm 3 mps 734 mmHg 43%
    17:00 +20°C° 0 mm 2 mps 734 mmHg 50%
    18:00 +18°C° 0 mm 2 mps 734 mmHg 57%
    19:00 +16°C° 0 mm 1 mps 734 mmHg 64%
    20:00 +15°C° 0 mm 1 mps 734 mmHg 65%
    21:00 +14°C° 0 mm 1 mps 734 mmHg 67%
    22:00 +14°C° 0 mm 1 mps 735 mmHg 69%
    23:00 +14°C° 0 mm 1 mps 734 mmHg 72%

    24 May, Friday

    Time Temperature Precipitation Wind Pressure Humidity
    00:00 +13°C° 0 mm 1 mps 734 mmHg 75%
    01:00 +13°C° 0 mm 1 mps 734 mmHg 79%
    02:00 +13°C° 0 mm 1 mps 734 mmHg 78%
    03:00 +13°C° 0 mm 1 mps 734 mmHg 76%
    04:00 +13°C° 0 mm 2 mps 733 mmHg 75%
    05:00 +15°C° 0 mm 1 mps 733 mmHg 70%
    06:00 +16°C° 0 mm 1 mps 734 mmHg 64%
    07:00 +19°C° 0 mm 1 mps 734 mmHg 59%
    08:00 +21°C° 0 mm 1 mps 734 mmHg 55%
    09:00 +21°C° 0 mm 2 mps 734 mmHg 52%
    10:00 +24°C° 0 mm 2 mps 734 mmHg 48%
    11:00 +24°C° 0 mm 2 mps 734 mmHg 47%
    12:00 +24°C° 0 mm 3 mps 734 mmHg 46%
    13:00 +25°C° 0 mm 3 mps 734 mmHg 46%
    14:00 +25°C° 0 mm 3 mps 734 mmHg 46%
    15:00 +24°C° 0 mm 3 mps 734 mmHg 47%
    16:00 +24°C° 0 mm 3 mps 733 mmHg 48%
    17:00 +21°C° 0 mm 2 mps 733 mmHg 53%
    18:00 +19°C° 0 mm 2 mps 733 mmHg 59%
    19:00 +19°C° 0 mm 1 mps 733 mmHg 64%
    20:00 +18°C° 0 mm 1 mps 733 mmHg 65%
    21:00 +16°C° 0 mm 1 mps 734 mmHg 65%
    22:00 +15°C° 0 mm 1 mps 734 mmHg 66%
    23:00 +15°C° 0 mm 1 mps 734 mmHg 62%

    25 May, Saturday

    Time Temperature Precipitation Wind Pressure Humidity
    00:00 +15°C° 0 mm 1 mps 734 mmHg 59%
    01:00 +15°C° 0 mm 1 mps 733 mmHg 56%
    02:00 +15°C° 0 mm 1 mps 733 mmHg 55%
    03:00 +15°C° 0 mm 1 mps 733 mmHg 54%
    04:00 +15°C° 0 mm 1 mps 733 mmHg 53%
    05:00 +16°C° 0 mm 1 mps 733 mmHg 50%
    06:00 +18°C° 0 mm 1 mps 733 mmHg 48%
    07:00 +20°C° 0 mm 1 mps 733 mmHg 46%
    08:00 +22°C° 0 mm 1 mps 734 mmHg 41%
    09:00 +23°C° 0 mm 2 mps 734 mmHg 37%
    10:00 +25°C° 0 mm 2 mps 734 mmHg 33%
    11:00 +25°C° 0 mm 2 mps 734 mmHg 36%
    12:00 +25°C° 0 mm 2 mps 734 mmHg 39%
    13:00 +25°C° 0 mm 2 mps 734 mmHg 42%
    14:00 +24°C° 0.1 mm 2 mps 734 mmHg 47%
    15:00 +21°C° 0.1 mm 2 mps 734 mmHg 52%
    16:00 +21°C° 0.1 mm 1 mps 734 mmHg 57%
    17:00 +20°C° 0 mm 2 mps 734 mmHg 61%
    18:00 +19°C° 0 mm 2 mps 733 mmHg 65%
    19:00 +18°C° 0 mm 3 mps 733 mmHg 69%
    20:00 +18°C° 0.1 mm 2 mps 733 mmHg 71%
    21:00 +18°C° 0.1 mm 2 mps 733 mmHg 73%
    22:00 +18°C° 0.1 mm 1 mps 734 mmHg 75%
    23:00 +17°C° 0 mm 2 mps 733 mmHg 76%

    26 May, Sunday

    Time Temperature Precipitation Wind Pressure Humidity
    00:00 +16°C° 0 mm 2 mps 733 mmHg 78%
    01:00 +16°C° 0 mm 3 mps 733 mmHg 79%
    02:00 +16°C° 0.1 mm 3 mps 733 mmHg 80%
    03:00 +16°C° 0.1 mm 3 mps 733 mmHg 81%
    04:00 +16°C° 0.1 mm 3 mps 732 mmHg 83%
    05:00 +17°C° 0.1 mm 2 mps 732 mmHg 82%
    06:00 +17°C° 0.1 mm 2 mps 732 mmHg 81%
    07:00 +18°C° 0.1 mm 2 mps 732 mmHg 80%
    08:00 +19°C° 0 mm 3 mps 732 mmHg 75%
    09:00 +19°C° 0 mm 3 mps 732 mmHg 71%
    10:00 +20°C° 0 mm 3 mps 732 mmHg 66%
    11:00 +21°C° 0.1 mm 3 mps 732 mmHg 62%
    12:00 +22°C° 0.1 mm 4 mps 732 mmHg 59%
    13:00 +23°C° 0.1 mm 4 mps 732 mmHg 55%
    14:00 +22°C° 0 mm 4 mps 732 mmHg 55%
    15:00 +22°C° 0 mm 4 mps 732 mmHg 55%
    16:00 +22°C° 0 mm 4 mps 731 mmHg 56%
    17:00 +20°C° 0 mm 4 mps 731 mmHg 63%
    18:00 +19°C° 0 mm 4 mps 731 mmHg 70%
    19:00 +18°C° 0 mm 4 mps 731 mmHg 77%
    20:00 +17°C° 0 mm 3 mps 731 mmHg 82%
    21:00 +16°C° 0 mm 2 mps 731 mmHg 87%
    22:00 +15°C° 0 mm 1 mps 731 mmHg 93%
    23:00 +16°C° 0.9 mm 2 mps 731 mmHg 94%
    Show more